M I D A S
Marine Information and Data Acquisition System
Tripno 183 of the Zeeleeuw from 2001-12-04 09:15:00 to 2001-12-04 16:20:00
Back to CruiseResearch ActivitiesStationsMapUnderway DataData graphs

EquipmentUnitsComment
TimeDGPSUTC
LatitudeDGPSDM.mWGS84
LongitudeDGPSDM.mWGS84
HeadingGyrodeg 
SOGDGPSknotsSpeed over ground
COGDGPSdegCourse over ground
DepthEcho soundermeters200 kHz
Missing or incorrect values are displayed as -999
Navigation data collected by the RV Zeeleeuw from 2001-12-04 09:15:00 to 2001-12-04 16:20:00
                                                                                    Next 1000 lines
Time Latitude Longitude Heading SOG COG Depth
2001-12-04 09:15:06 51°13.427 2°50.826 329.2 0.2 278.1 9.7
2001-12-04 09:15:12 51°13.427 2°50.826 329.2 0.2 272.7 9.7
2001-12-04 09:15:17 51°13.426 2°50.825 329.3 0.2 257.4 9.7
2001-12-04 09:15:22 51°13.426 2°50.825 329.2 0.2 260.8 9.7
2001-12-04 09:15:26 51°13.426 2°50.824 329.3 0.2 255.9 9.7
2001-12-04 09:15:32 51°13.426 2°50.824 329.2 0.2 264.7 9.7
2001-12-04 09:15:36 51°13.426 2°50.823 328.7 0.2 274.9 9.7
2001-12-04 09:15:42 51°13.426 2°50.823 328.8 0.2 274.2 9.6
2001-12-04 09:15:47 51°13.426 2°50.822 329.2 0.2 274.5 9.6
2001-12-04 09:15:51 51°13.426 2°50.822 329.2 0.2 269.2 9.7
2001-12-04 09:15:57 51°13.426 2°50.822 329.5 0.2 262.6 9.7
2001-12-04 09:16:01 51°13.426 2°50.822 329.7 0.2 262.6 9.6
2001-12-04 09:16:07 51°13.426 2°50.821 330 0.2 260.4 9.7
2001-12-04 09:16:12 51°13.426 2°50.821 330.2 0.2 256.9 9.7
2001-12-04 09:16:17 51°13.426 2°50.82 330 0.2 257.2 9.7
2001-12-04 09:16:22 51°13.426 2°50.82 329.7 0.3 270.7 9.7
2001-12-04 09:16:27 51°13.427 2°50.818 328.5 0.5 299.3 9.7
2001-12-04 09:16:32 51°13.428 2°50.816 325.3 0.9 307.7 9.7
2001-12-04 09:16:37 51°13.429 2°50.813 321.7 1.2 307.5 9.7
2001-12-04 09:16:41 51°13.43 2°50.811 317.3 1.6 303.6 9.7
2001-12-04 09:16:46 51°13.432 2°50.807 312.5 1.9 300.2 9.7
2001-12-04 09:16:52 51°13.433 2°50.801 307.5 2.1 297.8 8.5
2001-12-04 09:16:56 51°13.434 2°50.797 302.7 2.4 293.4 9.6
2001-12-04 09:17:02 51°13.436 2°50.79 298.3 2.6 290.8 9.5
2001-12-04 09:17:06 51°13.437 2°50.786 294 2.7 287.3 9.5
2001-12-04 09:17:11 51°13.437 2°50.779 289.2 2.9 283.7 9.6
2001-12-04 09:17:17 51°13.438 2°50.771 284 3 278 9.6
2001-12-04 09:17:22 51°13.438 2°50.764 279.5 3.1 274.7 9.6
2001-12-04 09:17:26 51°13.438 2°50.759 274.2 3.2 271.3 9.5
2001-12-04 09:17:32 51°13.437 2°50.749 268.8 3.5 265.5 9.5
2001-12-04 09:17:37 51°13.435 2°50.74 262 3.9 258.1 9.5
2001-12-04 09:17:41 51°13.433 2°50.732 253.5 4.3 253.1 9.5
2001-12-04 09:17:47 51°13.429 2°50.721 245.2 4.7 246 9.4
2001-12-04 09:17:52 51°13.425 2°50.711 238.8 5.2 239 9.4
2001-12-04 09:17:56 51°13.421 2°50.702 235.5 5.6 236.2 9.4
2001-12-04 09:18:01 51°13.415 2°50.691 233.7 6.1 233.4 9.5
2001-12-04 09:18:07 51°13.408 2°50.676 232.7 6.7 231.5 9.5
2001-12-04 09:18:11 51°13.402 2°50.666 231.8 7.1 230.6 9.6
2001-12-04 09:18:17 51°13.394 2°50.651 230.3 7.4 229.5 9.5
2001-12-04 09:18:21 51°13.387 2°50.641 229.2 8 227.6 9.5
2001-12-04 09:18:27 51°13.377 2°50.624 227.8 8.5 226.5 9.5
2001-12-04 09:18:31 51°13.37 2°50.612 226.7 9.1 225.4 9.6
2001-12-04 09:18:37 51°13.358 2°50.595 225 9.6 223.2 9.6
2001-12-04 09:18:41 51°13.349 2°50.582 223.5 10 223.1 9.7
2001-12-04 09:18:47 51°13.335 2°50.562 223.7 10.6 221.8 9.4
2001-12-04 09:18:51 51°13.327 2°50.547 226.8 11.2 224.4 9.6
2001-12-04 09:18:57 51°13.314 2°50.523 230.7 11.7 227 9.7
2001-12-04 09:19:02 51°13.304 2°50.501 234.5 12.1 231.4 9.6
2001-12-04 09:19:07 51°13.295 2°50.477 238.8 12.4 234.4 9.7
2001-12-04 09:19:12 51°13.286 2°50.452 242 12.7 238.4 9.7
2001-12-04 09:19:17 51°13.277 2°50.427 242.5 13 240.3 9.7
2001-12-04 09:19:22 51°13.267 2°50.402 241.7 13.2 239.9 9.7
2001-12-04 09:19:26 51°13.26 2°50.382 242.2 13.3 239.7 9.8
2001-12-04 09:19:32 51°13.248 2°50.351 242.3 13.5 239.7 9.8
2001-12-04 09:19:36 51°13.241 2°50.33 242 13.6 239.8 9.9
2001-12-04 09:19:41 51°13.231 2°50.304 242.2 13.7 239.4 9.8
2001-12-04 09:19:47 51°13.22 2°50.272 242.2 13.8 239.8 9.8
2001-12-04 09:19:52 51°13.21 2°50.246 242.5 13.8 239.8 9.9
2001-12-04 09:19:57 51°13.2 2°50.22 242 13.9 239.9 9.9
2001-12-04 09:20:01 51°13.192 2°50.199 241 13.9 239.2 9.8
2001-12-04 09:20:07 51°13.18 2°50.167 240.8 13.9 238.3 9.9
2001-12-04 09:20:12 51°13.169 2°50.141 240.3 14 238 9.9
2001-12-04 09:20:17 51°13.159 2°50.115 239.7 14 237.7 9.9
2001-12-04 09:20:21 51°13.151 2°50.094 239.3 14 237.2 9.9
2001-12-04 09:20:27 51°13.138 2°50.063 239.2 14 237.1 9.9
2001-12-04 09:20:32 51°13.127 2°50.037 238.3 14 237 9.9
2001-12-04 09:20:37 51°13.116 2°50.011 239 14.1 237.1 9.9
2001-12-04 09:20:41 51°13.108 2°49.99 239.5 14.1 236.8 10
2001-12-04 09:20:47 51°13.095 2°49.959 239.2 14.1 236.9 9.9
2001-12-04 09:20:52 51°13.084 2°49.932 239.5 14.2 237.2 10
2001-12-04 09:20:57 51°13.074 2°49.906 239.5 14.2 237.3 9.9
2001-12-04 09:21:02 51°13.063 2°49.88 239.8 14.1 237.6 10
2001-12-04 09:21:07 51°13.053 2°49.853 240 14.2 237.6 10.1
2001-12-04 09:21:12 51°13.042 2°49.827 239.7 14.2 237.5 10
2001-12-04 09:21:17 51°13.031 2°49.8 239.7 14.2 237.5 10
2001-12-04 09:21:21 51°13.023 2°49.779 240 14.2 237.7 10
2001-12-04 09:21:27 51°13.011 2°49.747 239.7 14.2 237.7 10.1
2001-12-04 09:21:31 51°13.002 2°49.726 239.7 14.2 237.6 10.1
2001-12-04 09:21:36 51°12.992 2°49.699 240.2 14.2 238 10.1
2001-12-04 09:21:41 51°12.981 2°49.672 240.2 14.3 238.1 10
2001-12-04 09:21:47 51°12.969 2°49.641 240.7 14.2 238 10.1
2001-12-04 09:21:51 51°12.96 2°49.619 240.2 14.2 237.9 9.8
2001-12-04 09:21:56 51°12.95 2°49.593 240.5 14.2 238 10.1
2001-12-04 09:22:02 51°12.937 2°49.561 240.2 14.2 237.8 10.2
2001-12-04 09:22:07 51°12.927 2°49.534 239.7 14.2 237.7 10.2
2001-12-04 09:22:11 51°12.918 2°49.513 240 14.3 237.6 10.3
2001-12-04 09:22:17 51°12.905 2°49.481 239.5 14.3 237.8 10.2
2001-12-04 09:22:22 51°12.895 2°49.454 239.7 14.3 237.6 10.2
2001-12-04 09:22:26 51°12.886 2°49.433 239.7 14.3 237.8 10.2
2001-12-04 09:22:32 51°12.873 2°49.401 239.7 14.3 237.5 10.2
2001-12-04 09:22:36 51°12.865 2°49.38 239.7 14.3 237.3 10.2
2001-12-04 09:22:41 51°12.854 2°49.353 239.2 14.3 237.6 10.2
2001-12-04 09:22:46 51°12.843 2°49.327 239.8 14.2 237.2 10.2
2001-12-04 09:22:52 51°12.831 2°49.295 239.7 14.2 237.5 10.2
2001-12-04 09:22:56 51°12.822 2°49.274 238.8 14.2 237.7 10.1
2001-12-04 09:23:02 51°12.81 2°49.242 239.7 14.2 237.2 9.9
2001-12-04 09:23:07 51°12.799 2°49.215 239.7 14.3 237.7 10.2
2001-12-04 09:23:11 51°12.79 2°49.194 239.8 14.3 237.3 10.2
2001-12-04 09:23:16 51°12.78 2°49.168 240.2 14.3 237.5 10.3
2001-12-04 09:23:22 51°12.767 2°49.136 240 14.3 237.7 10.3
2001-12-04 09:23:26 51°12.759 2°49.114 240 14.3 237.8 10.3
2001-12-04 09:23:31 51°12.748 2°49.087 239.8 14.3 238 10.3
2001-12-04 09:23:37 51°12.735 2°49.055 240.3 14.4 237.9 10.3
2001-12-04 09:23:42 51°12.724 2°49.028 240 14.4 237.9 10.3
2001-12-04 09:23:46 51°12.716 2°49.007 239.8 14.4 237.9 10.4
2001-12-04 09:23:51 51°12.705 2°48.98 239.5 14.4 237.2 10.4
2001-12-04 09:23:57 51°12.692 2°48.948 239.7 14.4 237.2 10.4
2001-12-04 09:24:02 51°12.681 2°48.921 239.8 14.4 237.1 10.3
2001-12-04 09:24:07 51°12.671 2°48.894 239.5 14.4 237.2 10.3
2001-12-04 09:24:12 51°12.66 2°48.867 240.2 14.4 237.7 10.3
2001-12-04 09:24:16 51°12.652 2°48.846 240.3 14.4 237.9 10.4
2001-12-04 09:24:22 51°12.639 2°48.814 239.5 14.4 237.6 10.4
2001-12-04 09:24:27 51°12.628 2°48.787 240 14.4 237.6 10.4
2001-12-04 09:24:32 51°12.617 2°48.76 239.7 14.4 237.5 10.4
2001-12-04 09:24:37 51°12.606 2°48.733 239.2 14.4 237.9 10.5
2001-12-04 09:24:42 51°12.596 2°48.706 239.5 14.4 237.7 10.5
2001-12-04 09:24:47 51°12.585 2°48.679 239.8 14.4 237.9 10.5
2001-12-04 09:24:51 51°12.576 2°48.657 239.8 14.5 237.7 10.6
2001-12-04 09:24:57 51°12.564 2°48.625 240.2 14.5 238.1 10.6
2001-12-04 09:25:02 51°12.553 2°48.598 240 14.5 238.1 10.6
2001-12-04 09:25:07 51°12.543 2°48.57 240.2 14.5 238.2 10.7
2001-12-04 09:25:12 51°12.532 2°48.544 240.2 14.4 237.9 10.7
2001-12-04 09:25:16 51°12.524 2°48.522 240.3 14.5 238.3 10.7
2001-12-04 09:25:21 51°12.513 2°48.495 240 14.5 238.4 10.7
2001-12-04 09:25:26 51°12.502 2°48.468 240 14.5 238 10.7
2001-12-04 09:25:31 51°12.491 2°48.44 240.2 14.5 238 10.7
2001-12-04 09:25:37 51°12.479 2°48.408 240.3 14.5 237.9 10.6
2001-12-04 09:25:41 51°12.47 2°48.387 239.8 14.4 237.4 10.6
2001-12-04 09:25:47 51°12.457 2°48.354 240 14.4 237.6 10.6
2001-12-04 09:25:52 51°12.447 2°48.327 240.2 14.4 237.6 10.7
2001-12-04 09:25:57 51°12.435 2°48.301 239 14.4 237.4 10.6
2001-12-04 09:26:01 51°12.427 2°48.279 239.7 14.4 237.1 10.7
2001-12-04 09:26:06 51°12.416 2°48.253 239.5 14.4 237 10.7
2001-12-04 09:26:12 51°12.403 2°48.22 239.5 14.4 237.2 10.6
2001-12-04 09:26:17 51°12.393 2°48.193 240 14.4 237.6 10.7
2001-12-04 09:26:22 51°12.382 2°48.167 239.8 14.4 237.6 10.7
2001-12-04 09:26:27 51°12.371 2°48.14 239.8 14.4 237.9 10.6
2001-12-04 09:26:32 51°12.361 2°48.112 240.2 14.5 237.8 10.8
2001-12-04 09:26:37 51°12.35 2°48.085 240.3 14.5 238 10.8
2001-12-04 09:26:42 51°12.339 2°48.058 240.5 14.5 238 10.8
2001-12-04 09:26:47 51°12.329 2°48.031 240 14.4 237.8 10.8
2001-12-04 09:26:51 51°12.32 2°48.01 240.5 14.4 237.5 10.8
2001-12-04 09:26:57 51°12.307 2°47.977 239.5 14.5 237.6 10.8
2001-12-04 09:27:01 51°12.298 2°47.956 239.2 14.5 237.2 10.8
2001-12-04 09:27:06 51°12.288 2°47.929 239.8 14.5 237.5 10.8
2001-12-04 09:27:12 51°12.274 2°47.897 239.5 14.4 237.1 10.9
2001-12-04 09:27:16 51°12.266 2°47.875 239.3 14.4 237.6 10.8
2001-12-04 09:27:21 51°12.255 2°47.848 240 14.4 237.7 10.9
2001-12-04 09:27:27 51°12.242 2°47.816 240.2 14.4 238 10.8
2001-12-04 09:27:32 51°12.232 2°47.789 240.5 14.5 238 10.9
2001-12-04 09:27:36 51°12.223 2°47.768 240.2 14.4 237.8 10.9
2001-12-04 09:27:42 51°12.211 2°47.735 240 14.4 237.9 10.8
2001-12-04 09:27:46 51°12.202 2°47.713 240.3 14.4 238 10.6
2001-12-04 09:27:52 51°12.189 2°47.681 239.7 14.5 237.9 10.9
2001-12-04 09:27:57 51°12.179 2°47.654 240 14.4 237.9 11
2001-12-04 09:28:02 51°12.168 2°47.627 240 14.4 237.9 10.9
2001-12-04 09:28:07 51°12.157 2°47.6 240 14.4 237.5 11
2001-12-04 09:28:11 51°12.149 2°47.578 239.8 14.4 237.8 10.9
2001-12-04 09:28:17 51°12.136 2°47.546 240.2 14.5 237.6 11
2001-12-04 09:28:21 51°12.127 2°47.524 240 14.5 237.9 11
2001-12-04 09:28:27 51°12.115 2°47.492 240 14.5 237.8 11
2001-12-04 09:28:32 51°12.104 2°47.465 239.8 14.4 237.6 10.8
2001-12-04 09:28:37 51°12.093 2°47.438 239.7 14.4 237.5 10.9
2001-12-04 09:28:42 51°12.082 2°47.411 239.7 14.5 237.8 11
2001-12-04 09:28:47 51°12.072 2°47.384 239.8 14.4 237.3 11
2001-12-04 09:28:51 51°12.063 2°47.363 239.5 14.4 237.5 11
2001-12-04 09:28:56 51°12.052 2°47.336 240 14.4 237.6 10.9
2001-12-04 09:29:01 51°12.042 2°47.309 241.5 14.4 238.4 11
2001-12-04 09:29:07 51°12.03 2°47.276 241.5 14.4 239.4 11
2001-12-04 09:29:12 51°12.02 2°47.248 241.7 14.4 239.6 11
2001-12-04 09:29:16 51°12.012 2°47.226 242 14.4 240.1 11
2001-12-04 09:29:22 51°12 2°47.192 242.5 14.5 240.3 10.9
2001-12-04 09:29:27 51°11.99 2°47.165 242.7 14.4 240 11
2001-12-04 09:29:32 51°11.98 2°47.138 242.7 14.4 240.2 11
2001-12-04 09:29:36 51°11.972 2°47.115 242.7 14.4 240.1 11
2001-12-04 09:29:42 51°11.96 2°47.082 242.2 14.4 240 10.9
2001-12-04 09:29:46 51°11.952 2°47.06 242.2 14.5 240.1 10.9
2001-12-04 09:29:52 51°11.94 2°47.027 242.5 14.5 240.1 10.8
2001-12-04 09:29:56 51°11.932 2°47.005 242.3 14.5 239.9 11
2001-12-04 09:30:02 51°11.921 2°46.971 242 14.5 240.1 10.9
2001-12-04 09:30:06 51°11.912 2°46.95 242.2 14.5 239.6 11
2001-12-04 09:30:11 51°11.902 2°46.922 242.2 14.5 240.1 10.8
2001-12-04 09:30:17 51°11.89 2°46.889 242.2 14.5 239.9 10.8
2001-12-04 09:30:22 51°11.88 2°46.861 242.3 14.5 239.9 10.7
2001-12-04 09:30:27 51°11.871 2°46.833 242.2 14.5 240.1 10.7
2001-12-04 09:30:32 51°11.861 2°46.806 242.7 14.4 240.3 10.9
2001-12-04 09:30:36 51°11.853 2°46.784 242.5 14.4 240.3 10.8
2001-12-04 09:30:42 51°11.841 2°46.75 242.8 14.5 240.6 10.8
2001-12-04 09:30:47 51°11.831 2°46.722 242.7 14.5 240.4 10.8
2001-12-04 09:30:52 51°11.822 2°46.694 243.2 14.4 240.6 10.8
2001-12-04 09:30:57 51°11.812 2°46.667 242.8 14.4 240.4 10.7
2001-12-04 09:31:02 51°11.802 2°46.639 243.2 14.4 240.9 10.7
2001-12-04 09:31:07 51°11.792 2°46.611 242.7 14.4 240.1 10.8
2001-12-04 09:31:12 51°11.782 2°46.583 242.8 14.5 240.3 10.7
2001-12-04 09:31:16 51°11.774 2°46.562 242.5 14.5 240.1 10.8
2001-12-04 09:31:22 51°11.762 2°46.528 242.8 14.4 240.5 10.8
2001-12-04 09:31:27 51°11.753 2°46.5 243.3 14.4 240.6 10.8
2001-12-04 09:31:32 51°11.743 2°46.473 243 14.4 240.7 10.8
2001-12-04 09:31:37 51°11.733 2°46.445 243.5 14.4 241.1 10.8
2001-12-04 09:31:41 51°11.725 2°46.423 243.2 14.4 240.8 10.8
2001-12-04 09:31:47 51°11.714 2°46.389 243.2 14.4 241 10.7
2001-12-04 09:31:51 51°11.706 2°46.367 243.5 14.4 241 10.8
2001-12-04 09:31:57 51°11.694 2°46.334 244 14.4 241 10.8
2001-12-04 09:32:02 51°11.685 2°46.305 243.7 14.4 241.6 10.7
2001-12-04 09:32:07 51°11.675 2°46.278 243.8 14.4 241.3 10.7
2001-12-04 09:32:12 51°11.665 2°46.25 243.8 14.4 241.4 10.7
2001-12-04 09:32:17 51°11.656 2°46.222 243.5 14.4 241.4 10.6
2001-12-04 09:32:21 51°11.648 2°46.2 243.8 14.4 241.4 10.6
2001-12-04 09:32:27 51°11.637 2°46.167 244.3 14.4 241.5 10.4
2001-12-04 09:32:31 51°11.629 2°46.144 243.8 14.4 241.5 10.5
2001-12-04 09:32:37 51°11.618 2°46.111 244.2 14.4 241.4 10.6
2001-12-04 09:32:42 51°11.608 2°46.083 243.7 14.3 241.5 10.4
2001-12-04 09:32:47 51°11.598 2°46.055 243.2 14.3 240.8 10.3
2001-12-04 09:32:52 51°11.589 2°46.027 243.7 14.3 241.5 10.4
2001-12-04 09:32:56 51°11.581 2°46.005 243.3 14.4 241 10.5
2001-12-04 09:33:02 51°11.57 2°45.972 243.5 14.3 241.2 10.5
2001-12-04 09:33:07 51°11.56 2°45.944 243.3 14.3 240.8 10.4
2001-12-04 09:33:12 51°11.55 2°45.917 243.2 14.3 240.8 10.3
2001-12-04 09:33:16 51°11.543 2°45.895 243.5 14.3 240.7 10.3
2001-12-04 09:33:21 51°11.534 2°45.867 243.8 14.3 241.5 10.3
2001-12-04 09:33:27 51°11.522 2°45.834 244 14.3 241.2 10.3
2001-12-04 09:33:31 51°11.515 2°45.811 244.2 14.3 241.9 10.3
2001-12-04 09:33:37 51°11.503 2°45.778 244.2 14.3 241.9 10.3
2001-12-04 09:33:42 51°11.494 2°45.751 244.5 14.2 242 10.3
2001-12-04 09:33:47 51°11.485 2°45.723 244.5 14.3 242 10.2
2001-12-04 09:33:52 51°11.475 2°45.695 244.5 14.3 242.2 10.3
2001-12-04 09:33:57 51°11.466 2°45.667 244.2 14.3 242 10.3
2001-12-04 09:34:02 51°11.457 2°45.639 244.3 14.3 242.1 10.2
2001-12-04 09:34:06 51°11.449 2°45.617 244.2 14.3 241.8 10.2
2001-12-04 09:34:11 51°11.44 2°45.589 244.5 14.2 242.2 10.2
2001-12-04 09:34:16 51°11.431 2°45.561 245.3 14.2 242.4 10.1
2001-12-04 09:34:22 51°11.42 2°45.527 245.5 14.3 243.4 10.1
2001-12-04 09:34:26 51°11.414 2°45.504 246 14.3 243.4 10.1
2001-12-04 09:34:31 51°11.405 2°45.476 246.3 14.3 243.8 10.1
2001-12-04 09:34:37 51°11.395 2°45.442 246.8 14.3 243.8 10
2001-12-04 09:34:42 51°11.386 2°45.414 246.2 14.2 243.9 10.1
2001-12-04 09:34:46 51°11.379 2°45.391 246.2 14.2 243.3 10
2001-12-04 09:34:52 51°11.368 2°45.357 246.2 14.3 243.3 9.9
2001-12-04 09:34:56 51°11.361 2°45.335 246.2 14.3 243.3 9.9
2001-12-04 09:35:02 51°11.35 2°45.302 246.2 14.2 242.9 10
2001-12-04 09:35:07 51°11.342 2°45.273 245.8 14.2 243.1 9.9
2001-12-04 09:35:11 51°11.334 2°45.251 246.3 14.2 243.4 9.8
2001-12-04 09:35:17 51°11.324 2°45.217 246 14.2 243.4 9.8
2001-12-04 09:35:21 51°11.317 2°45.195 245.8 14.2 243.6 9.8
2001-12-04 09:35:27 51°11.306 2°45.161 245.8 14.3 243.3 9.9
2001-12-04 09:35:31 51°11.299 2°45.138 245.8 14.3 243.4 9.8
2001-12-04 09:35:37 51°11.288 2°45.105 245.5 14.3 243.2 9.8
2001-12-04 09:35:42 51°11.279 2°45.077 246.2 14.3 243 9.8
2001-12-04 09:35:46 51°11.272 2°45.054 245.8 14.3 243.3 9.8
2001-12-04 09:35:51 51°11.262 2°45.026 245.3 14.3 242.5 9.8
2001-12-04 09:35:56 51°11.254 2°44.998 246 14.3 243.1 9.8
2001-12-04 09:36:02 51°11.243 2°44.964 245.8 14.3 243.3 9.7
2001-12-04 09:36:07 51°11.234 2°44.937 246.2 14.3 243.1 9.2
2001-12-04 09:36:12 51°11.224 2°44.909 245.7 14.3 242.9 9.7
2001-12-04 09:36:16 51°11.217 2°44.886 245.8 14.2 242.8 9.6
2001-12-04 09:36:21 51°11.208 2°44.858 245.7 14.2 243 9.4
2001-12-04 09:36:27 51°11.197 2°44.825 246 14.3 243.2 9.7
2001-12-04 09:36:32 51°11.188 2°44.797 246 14.3 243.3 9.5
2001-12-04 09:36:36 51°11.181 2°44.774 245.8 14.3 243.2 9.6
2001-12-04 09:36:42 51°11.17 2°44.741 246.2 14.2 243.2 9.6
2001-12-04 09:36:47 51°11.161 2°44.713 245.8 14.2 243.2 9.5
2001-12-04 09:36:51 51°11.154 2°44.69 246.2 14.3 243.3 9.5
2001-12-04 09:36:56 51°11.145 2°44.662 246.3 14.3 243.3 9.5
2001-12-04 09:37:01 51°11.136 2°44.634 246.5 14.3 243.2 9.5
2001-12-04 09:37:06 51°11.127 2°44.606 245.8 14.2 243.4 9.4
2001-12-04 09:37:12 51°11.117 2°44.573 245.7 14.2 243.2 9.3
2001-12-04 09:37:16 51°11.109 2°44.55 245.5 14.2 243.2 9.4
2001-12-04 09:37:22 51°11.098 2°44.517 245.8 14.3 242.7 9.3
2001-12-04 09:37:27 51°11.09 2°44.488 246.2 14.3 243.1 9.4
2001-12-04 09:37:31 51°11.083 2°44.466 245.7 14.2 242.9 9.4
2001-12-04 09:37:37 51°11.072 2°44.433 245.7 14.2 242.8 9.3
2001-12-04 09:37:42 51°11.063 2°44.405 245.7 14.2 242.9 9.3
2001-12-04 09:37:47 51°11.054 2°44.377 246 14.2 243 9.2
2001-12-04 09:37:51 51°11.046 2°44.354 246 14.3 243.2 9.3
2001-12-04 09:37:57 51°11.036 2°44.321 245.8 14.2 243.3 9.3
2001-12-04 09:38:01 51°11.028 2°44.298 246.3 14.2 243.2 9.2
2001-12-04 09:38:06 51°11.02 2°44.271 246 14.2 243.2 9.1
2001-12-04 09:38:11 51°11.011 2°44.242 246 14.2 243.3 9.1
2001-12-04 09:38:17 51°11 2°44.209 246 14.3 243.3 9.1
2001-12-04 09:38:21 51°10.993 2°44.186 245.7 14.2 242.7 9.1
2001-12-04 09:38:26 51°10.984 2°44.158 245.7 14.2 243.4 9.1
2001-12-04 09:38:32 51°10.974 2°44.124 247 14.2 243.6 8.9
2001-12-04 09:38:37 51°10.966 2°44.096 248.5 14.3 245.1 9.1
2001-12-04 09:38:42 51°10.958 2°44.067 249.2 14.2 245.8 9.1
2001-12-04 09:38:47 51°10.95 2°44.038 249.7 14.2 246.3 9
2001-12-04 09:38:52 51°10.942 2°44.01 250.3 14.2 247.1 9
2001-12-04 09:38:57 51°10.934 2°43.98 251 14.2 247.6 9
2001-12-04 09:39:02 51°10.927 2°43.952 251 14.2 247.9 8.9
2001-12-04 09:39:07 51°10.919 2°43.923 251.2 14.2 248 9
2001-12-04 09:39:12 51°10.912 2°43.894 250.8 14.2 247.6 9
2001-12-04 09:39:16 51°10.905 2°43.871 251 14.2 247.5 9.1
2001-12-04 09:39:21 51°10.898 2°43.842 250.8 14.2 247.5 9
2001-12-04 09:39:26 51°10.89 2°43.813 250.3 14.2 247.4 9
2001-12-04 09:39:31 51°10.883 2°43.784 250.7 14.2 247.4 9
2001-12-04 09:39:37 51°10.873 2°43.749 250.2 14.2 247.4 8.8
2001-12-04 09:39:42 51°10.866 2°43.72 250.5 14.2 247 9
2001-12-04 09:39:46 51°10.86 2°43.697 250.3 14.2 247.1 9
2001-12-04 09:39:51 51°10.852 2°43.669 250.7 14.2 246.8 9
2001-12-04 09:39:56 51°10.844 2°43.64 249.7 14.2 246.8 8.9
2001-12-04 09:40:02 51°10.835 2°43.605 249.7 14.2 246.7 8.9
2001-12-04 09:40:07 51°10.827 2°43.577 250 14.2 246.8 8.9
2001-12-04 09:40:12 51°10.819 2°43.548 250.2 14.2 246.6 8.9
2001-12-04 09:40:17 51°10.811 2°43.519 250 14.2 246.6 8.9
2001-12-04 09:40:21 51°10.805 2°43.496 249.7 14.2 247 8.9
2001-12-04 09:40:27 51°10.796 2°43.462 250.2 14.1 246.8 8.9
2001-12-04 09:40:31 51°10.79 2°43.439 250.3 14.1 246.7 8.8
2001-12-04 09:40:37 51°10.78 2°43.404 249.8 14.1 247 8.9
2001-12-04 09:40:41 51°10.774 2°43.382 249.7 14.2 246.6 8.8
2001-12-04 09:40:46 51°10.766 2°43.353 250 14.2 246.8 8.8
2001-12-04 09:40:51 51°10.758 2°43.324 249.8 14.1 246.7 8.8
2001-12-04 09:40:56 51°10.75 2°43.295 249.5 14.2 246.3 8.7
2001-12-04 09:41:01 51°10.743 2°43.266 250 14.2 246.8 8.8
2001-12-04 09:41:07 51°10.733 2°43.232 250.2 14.2 246.4 8.8
2001-12-04 09:41:12 51°10.726 2°43.203 250.3 14.1 247.1 8.8
2001-12-04 09:41:16 51°10.72 2°43.18 251.2 14.1 247.6 8.8
2001-12-04 09:41:22 51°10.711 2°43.145 252.2 14.1 248.1 8.7
2001-12-04 09:41:27 51°10.704 2°43.116 252.5 14.2 248.7 8.7
2001-12-04 09:41:31 51°10.699 2°43.093 252.7 14.2 249.3 8.7
2001-12-04 09:41:36 51°10.692 2°43.064 252.8 14.1 249.2 8.7
2001-12-04 09:41:42 51°10.683 2°43.029 252.7 14.1 249.3 8.7
2001-12-04 09:41:47 51°10.676 2°43 252.7 14.1 249 8.6
2001-12-04 09:41:52 51°10.669 2°42.971 251.8 14.1 248.5 8.7
2001-12-04 09:41:57 51°10.662 2°42.942 252 14.2 248.7 8.4
2001-12-04 09:42:02 51°10.655 2°42.913 252.2 14.1 248.3 8.7
2001-12-04 09:42:07 51°10.647 2°42.884 251.8 14.1 248.2 8.5
2001-12-04 09:42:11 51°10.642 2°42.861 251.7 14.1 248.2 8.6
2001-12-04 09:42:16 51°10.635 2°42.832 252 14.1 248.5 8.6
2001-12-04 09:42:22 51°10.626 2°42.797 251.7 14.1 248.7 8.6
2001-12-04 09:42:27 51°10.619 2°42.768 251.8 14.1 248.8 8.6
2001-12-04 09:42:31 51°10.613 2°42.745 252.2 14.1 248.5 8.7
2001-12-04 09:42:37 51°10.604 2°42.71 252 14.1 248.7 8.6
2001-12-04 09:42:41 51°10.599 2°42.687 252.2 14.1 248.4 8.5
2001-12-04 09:42:46 51°10.591 2°42.658 252 14.1 248.6 8.6
2001-12-04 09:42:52 51°10.583 2°42.623 252 14.1 248.6 8.6
2001-12-04 09:42:56 51°10.577 2°42.6 252.5 14.1 248.7 8.6
2001-12-04 09:43:02 51°10.569 2°42.565 252.8 14.1 249.3 8.6
2001-12-04 09:43:07 51°10.562 2°42.536 253.3 14.1 249.3 8.6
2001-12-04 09:43:12 51°10.556 2°42.507 253.5 14.1 250 8.5
2001-12-04 09:43:16 51°10.551 2°42.483 253.8 14.1 250.3 8.6
2001-12-04 09:43:21 51°10.544 2°42.454 254.2 14.1 250.6 8.7
2001-12-04 09:43:27 51°10.536 2°42.418 254.2 14.1 250.6 8.6
2001-12-04 09:43:32 51°10.53 2°42.389 254.5 14.1 250.9 8.7
2001-12-04 09:43:37 51°10.524 2°42.36 254 14.1 250.5 8.7
2001-12-04 09:43:42 51°10.517 2°42.33 254.3 14.1 251 8.7
2001-12-04 09:43:47 51°10.511 2°42.301 254.2 14.1 250.6 8.7
2001-12-04 09:43:51 51°10.506 2°42.277 254.2 14.1 250.8 8.8
2001-12-04 09:43:56 51°10.499 2°42.248 253.8 14.2 250.5 8.7
2001-12-04 09:44:02 51°10.491 2°42.212 254 14.2 250.8 8.7
2001-12-04 09:44:07 51°10.485 2°42.183 254.5 14.1 250.7 8.7
2001-12-04 09:44:12 51°10.479 2°42.153 253.8 14.1 250.9 8.5
2001-12-04 09:44:17 51°10.473 2°42.124 254.2 14.1 250.8 8.8
2001-12-04 09:44:22 51°10.466 2°42.095 254.2 14.1 250.4 8.7
2001-12-04 09:44:26 51°10.461 2°42.071 253.2 14.1 250.2 8.6
2001-12-04 09:44:32 51°10.453 2°42.036 254 14.1 250.5 8.6
2001-12-04 09:44:37 51°10.446 2°42.007 254.3 14.1 250.3 8.4
2001-12-04 09:44:41 51°10.442 2°41.983 253.7 14.1 250.7 8.9
2001-12-04 09:44:47 51°10.433 2°41.948 253.7 14.1 250.2 8.9
2001-12-04 09:44:52 51°10.427 2°41.919 253.8 14.1 250 8.8
2001-12-04 09:44:57 51°10.42 2°41.889 253.8 14.1 250.3 8.8
2001-12-04 09:45:02 51°10.414 2°41.86 253.3 14.1 250 8.9
2001-12-04 09:45:07 51°10.407 2°41.831 253.2 14.1 249.8 8.9
2001-12-04 09:45:12 51°10.4 2°41.802 253.3 14 249.9 8.7
2001-12-04 09:45:17 51°10.393 2°41.773 253 14.1 249.8 8.9
2001-12-04 09:45:22 51°10.387 2°41.743 253.7 14.1 250.2 8.8
2001-12-04 09:45:27 51°10.38 2°41.714 253.7 14.1 250.1 8.9
2001-12-04 09:45:32 51°10.374 2°41.685 254 14.1 250.2 8.9
2001-12-04 09:45:36 51°10.369 2°41.661 253.8 14.1 250.4 8.9
2001-12-04 09:45:41 51°10.362 2°41.632 254.2 14.1 250.6 8.9
2001-12-04 09:45:46 51°10.356 2°41.602 254.2 14.1 250.8 8.8
2001-12-04 09:45:52 51°10.348 2°41.567 254.5 14.2 250.8 8.9
2001-12-04 09:45:57 51°10.341 2°41.537 254.2 14.2 250.8 8.9
2001-12-04 09:46:02 51°10.335 2°41.508 254.2 14.2 250.6 8.9
2001-12-04 09:46:06 51°10.33 2°41.484 254 14.1 250.6 8.9
2001-12-04 09:46:11 51°10.323 2°41.455 253.3 14.1 250.3 8.9
2001-12-04 09:46:16 51°10.317 2°41.426 253.5 14.2 250.1 8.9
2001-12-04 09:46:22 51°10.309 2°41.39 252.7 14.2 249.9 8.9
2001-12-04 09:46:27 51°10.301 2°41.362 251.3 14.2 248.8 8.9
2001-12-04 09:46:32 51°10.293 2°41.333 250.2 14.2 247.8 9
2001-12-04 09:46:37 51°10.285 2°41.304 249.5 14.1 246.5 9
2001-12-04 09:46:42 51°10.277 2°41.276 248.7 14.1 245.4 8.9
2001-12-04 09:46:47 51°10.268 2°41.248 247.3 14.1 245.4 9
2001-12-04 09:46:52 51°10.26 2°41.219 247.7 14.1 244.9 9
2001-12-04 09:46:57 51°10.251 2°41.191 247.7 14.2 244.9 9
2001-12-04 09:47:02 51°10.243 2°41.163 246.3 14.2 244.3 8.8
2001-12-04 09:47:07 51°10.235 2°41.135 247.2 14.1 244 9
2001-12-04 09:47:12 51°10.226 2°41.107 246.5 14.1 244.1 8.7
2001-12-04 09:47:16 51°10.218 2°41.085 246 14.1 243.1 9
2001-12-04 09:47:21 51°10.21 2°41.058 245.3 14.1 243.1 9
2001-12-04 09:47:27 51°10.198 2°41.025 244 14 242.3 8.7
2001-12-04 09:47:32 51°10.189 2°40.998 244.2 14 241.8 8.9
2001-12-04 09:47:37 51°10.179 2°40.971 243.7 14 241.4 8.9
2001-12-04 09:47:41 51°10.172 2°40.95 242.8 14 240.6 8.9
2001-12-04 09:47:47 51°10.159 2°40.918 241.3 14 239.2 8.9
2001-12-04 09:47:51 51°10.152 2°40.896 241 14 239.4 8.8
2001-12-04 09:47:56 51°10.141 2°40.87 240 13.9 238.5 8.7
2001-12-04 09:48:01 51°10.131 2°40.844 240.2 13.9 238.5 8.8
2001-12-04 09:48:07 51°10.119 2°40.813 239.5 13.9 237.6 8.7
2001-12-04 09:48:11 51°10.111 2°40.792 239.8 13.9 237.9 8.9
2001-12-04 09:48:17 51°10.098 2°40.761 238.7 13.9 237.3 8.8
2001-12-04 09:48:22 51°10.088 2°40.736 238.3 13.9 237.1 8.8
2001-12-04 09:48:27 51°10.077 2°40.71 238 13.9 236.3 8.8
2001-12-04 09:48:32 51°10.066 2°40.685 237.2 13.9 235.9 8.8
2001-12-04 09:48:37 51°10.055 2°40.66 236.7 13.8 235.2 8.8
2001-12-04 09:48:42 51°10.044 2°40.636 236.8 13.8 234.7 8.8
2001-12-04 09:48:47 51°10.033 2°40.611 236.3 13.8 234.5 8.7
2001-12-04 09:48:51 51°10.024 2°40.591 235.3 13.8 233.9 8.6
2001-12-04 09:48:57 51°10.01 2°40.562 236 13.8 234.1 8.7
2001-12-04 09:49:02 51°9.999 2°40.537 235.5 13.7 234 8.6
2001-12-04 09:49:07 51°9.988 2°40.512 236.5 13.8 234.5 8.6
2001-12-04 09:49:12 51°9.978 2°40.486 238.3 13.8 235.6 8.5
2001-12-04 09:49:16 51°9.971 2°40.465 241.2 13.8 238.5 8.5
2001-12-04 09:49:22 51°9.959 2°40.433 243.8 13.7 240.6 8.5
2001-12-04 09:49:27 51°9.951 2°40.406 245.2 13.7 243.3 8.6
2001-12-04 09:49:32 51°9.943 2°40.379 247.8 13.7 244.5 8.7
2001-12-04 09:49:37 51°9.936 2°40.35 250.7 13.7 247.4 8.7
2001-12-04 09:49:42 51°9.93 2°40.322 252.8 13.7 249.3 8.7
2001-12-04 09:49:46 51°9.925 2°40.298 255.2 13.8 251.1 8.6
2001-12-04 09:49:51 51°9.92 2°40.269 256.8 13.8 253 8.6
2001-12-04 09:49:56 51°9.915 2°40.24 258.3 13.8 254.6 8.8
2001-12-04 09:50:02 51°9.91 2°40.204 259.2 13.8 255.7 8.6
2001-12-04 09:50:07 51°9.905 2°40.175 260 13.8 256.7 8.8
2001-12-04 09:50:12 51°9.902 2°40.145 260.7 13.8 257.4 8.8
2001-12-04 09:50:16 51°9.898 2°40.121 260 13.8 256.9 8.8
2001-12-04 09:50:22 51°9.892 2°40.086 260 13.8 256.8 -999
2001-12-04 09:50:27 51°9.887 2°40.056 258.8 13.8 255.8 8.9
2001-12-04 09:50:32 51°9.882 2°40.027 258.2 13.8 255.3 8.8
2001-12-04 09:50:36 51°9.878 2°40.003 257.5 13.9 254.5 8.6
2001-12-04 09:50:41 51°9.873 2°39.974 256.8 13.9 254 8.9
2001-12-04 09:50:47 51°9.866 2°39.938 256.5 13.9 253.2 8.9
2001-12-04 09:50:51 51°9.861 2°39.915 256 13.9 253.1 8.9
2001-12-04 09:50:57 51°9.855 2°39.88 256 13.9 253 8.9
2001-12-04 09:51:02 51°9.849 2°39.85 256 13.9 253 9
2001-12-04 09:51:07 51°9.843 2°39.821 255.8 14 252.7 8.9
2001-12-04 09:51:12 51°9.837 2°39.791 256.2 14 252.7 8.9
2001-12-04 09:51:16 51°9.833 2°39.768 256 14 252.6 8.8
2001-12-04 09:51:22 51°9.826 2°39.732 255.8 14 253.1 9
2001-12-04 09:51:26 51°9.822 2°39.709 255.7 14 252.9 8.9
2001-12-04 09:51:32 51°9.815 2°39.673 255.8 14 252.6 9
2001-12-04 09:51:37 51°9.809 2°39.644 256.3 14 252.9 9
2001-12-04 09:51:41 51°9.804 2°39.62 255.5 14 252.8 9
2001-12-04 09:51:46 51°9.798 2°39.591 255.8 14 252.7 8.9
2001-12-04 09:51:52 51°9.791 2°39.555 255.2 14 252.7 8.9
2001-12-04 09:51:56 51°9.787 2°39.532 255.5 14 252.1 9
2001-12-04 09:52:01 51°9.781 2°39.502 255.8 14 252.4 9.1
2001-12-04 09:52:07 51°9.774 2°39.467 255.7 14.1 252.3 9
2001-12-04 09:52:12 51°9.768 2°39.437 256 14.1 252.9 9.1
2001-12-04 09:52:16 51°9.764 2°39.413 256.7 14.1 253.2 9.2
2001-12-04 09:52:22 51°9.758 2°39.378 257.2 14 254.2 9.2
2001-12-04 09:52:27 51°9.753 2°39.348 257.7 14 254.4 9.2
2001-12-04 09:52:32 51°9.748 2°39.318 258.5 14 254.9 9.2
2001-12-04 09:52:37 51°9.742 2°39.288 258 14 255 9.3
2001-12-04 09:52:41 51°9.738 2°39.264 258.2 14 254.9 9.3
2001-12-04 09:52:47 51°9.732 2°39.228 258.2 14 255 9.3
2001-12-04 09:52:51 51°9.728 2°39.204 257.8 14 254.6 9.3
2001-12-04 09:52:57 51°9.722 2°39.168 258.2 14.1 254.8 9.3
2001-12-04 09:53:02 51°9.717 2°39.138 258.3 14.1 254.9 9.3
2001-12-04 09:53:07 51°9.712 2°39.108 258.5 14.1 255 9.4
2001-12-04 09:53:11 51°9.708 2°39.084 258.2 14 255.2 9.4
2001-12-04 09:53:16 51°9.703 2°39.054 258 14.1 254.8 9.5
2001-12-04 09:53:22 51°9.697 2°39.018 258.2 14.1 254.9 9.6
2001-12-04 09:53:27 51°9.692 2°38.989 258.2 14.1 254.5 9.5
2001-12-04 09:53:31 51°9.687 2°38.964 257.7 14.1 254.7 9.6
2001-12-04 09:53:37 51°9.681 2°38.929 257.8 14.1 254.5 9.5
2001-12-04 09:53:42 51°9.676 2°38.899 257.8 14.1 254.2 9.5
2001-12-04 09:53:46 51°9.672 2°38.875 258.2 14.1 254.3 9.7
2001-12-04 09:53:52 51°9.665 2°38.839 257.7 14.1 254.3 9.6
2001-12-04 09:53:56 51°9.661 2°38.815 258.2 14.1 254.6 9.8
2001-12-04 09:54:02 51°9.655 2°38.778 257.8 14.1 254.7 9.8
2001-12-04 09:54:07 51°9.65 2°38.748 258 14.2 254.8 9.8
2001-12-04 09:54:12 51°9.645 2°38.718 258 14.2 254.8 9.7
2001-12-04 09:54:16 51°9.64 2°38.694 258.2 14.1 254.8 9.8
2001-12-04 09:54:22 51°9.634 2°38.658 258.5 14.1 254.8 9.8
2001-12-04 09:54:27 51°9.629 2°38.628 258 14.1 254.9 9.7
2001-12-04 09:54:31 51°9.625 2°38.604 258.3 14.1 255 9.8
2001-12-04 09:54:37 51°9.619 2°38.568 258.2 14.1 254.7 9.9
2001-12-04 09:54:42 51°9.614 2°38.538 258 14.1 254.3 9.9
2001-12-04 09:54:47 51°9.609 2°38.508 258.2 14.1 254.5 9.9
2001-12-04 09:54:52 51°9.603 2°38.478 258 14.1 254.5 9.9
2001-12-04 09:54:57 51°9.598 2°38.448 257.7 14.1 254.8 10
2001-12-04 09:55:02 51°9.593 2°38.418 257.3 14.1 254.4 10
2001-12-04 09:55:06 51°9.589 2°38.394 257.3 14.1 254.3 10
2001-12-04 09:55:12 51°9.582 2°38.358 257.7 14.1 254.5 9.9
2001-12-04 09:55:17 51°9.577 2°38.329 257.8 14.1 254.3 10
2001-12-04 09:55:21 51°9.573 2°38.304 257.5 14.1 254.4 10
2001-12-04 09:55:27 51°9.566 2°38.268 257.8 14.1 254.7 10
2001-12-04 09:55:32 51°9.561 2°38.238 258.2 14.1 254.6 9.9
2001-12-04 09:55:37 51°9.556 2°38.208 258.3 14.2 255.1 10.1
2001-12-04 09:55:41 51°9.552 2°38.184 258.3 14.2 254.8 10.1
2001-12-04 09:55:47 51°9.546 2°38.148 258.5 14.1 255 10.2
2001-12-04 09:55:52 51°9.541 2°38.118 257.8 14.1 254.8 10.2
2001-12-04 09:55:57 51°9.536 2°38.087 257.8 14.1 254.8 10.2
2001-12-04 09:56:01 51°9.531 2°38.063 258.2 14.2 254.8 10.3
2001-12-04 09:56:07 51°9.525 2°38.027 258 14.2 255.2 10.4
2001-12-04 09:56:11 51°9.521 2°38.003 258.3 14.2 255.2 10.4
2001-12-04 09:56:17 51°9.515 2°37.967 258.3 14.1 255.2 10.5
2001-12-04 09:56:22 51°9.51 2°37.936 257.7 14.1 255.4 10.5
2001-12-04 09:56:27 51°9.505 2°37.906 257.5 14.1 255 10.5
2001-12-04 09:56:32 51°9.5 2°37.876 257.7 14.2 255 10.5
2001-12-04 09:56:36 51°9.496 2°37.852 257.8 14.2 254.8 10.6
2001-12-04 09:56:41 51°9.491 2°37.821 257.8 14.2 255.1 10.7
2001-12-04 09:56:47 51°9.485 2°37.785 257.7 14.2 255.1 10.5
2001-12-04 09:56:52 51°9.48 2°37.755 257.7 14.2 254.9 10.7
2001-12-04 09:56:57 51°9.475 2°37.725 257.5 14.2 254.9 10.8
2001-12-04 09:57:02 51°9.47 2°37.695 257.3 14.2 254.7 10.8
2001-12-04 09:57:06 51°9.465 2°37.671 257.3 14.2 254.5 10.9
2001-12-04 09:57:11 51°9.46 2°37.641 257.7 14.2 254.2 10.8
2001-12-04 09:57:17 51°9.454 2°37.605 257.5 14.2 254.4 10.9
2001-12-04 09:57:21 51°9.45 2°37.581 258 14.1 254.3 11.1
2001-12-04 09:57:27 51°9.443 2°37.544 257.8 14.1 254.7 11.1
2001-12-04 09:57:32 51°9.438 2°37.515 257.8 14.1 254.6 11.1
2001-12-04 09:57:37 51°9.433 2°37.484 258.2 14.1 254.6 11.3
2001-12-04 09:57:42 51°9.428 2°37.454 258.3 14.2 254.7 11.3
2001-12-04 09:57:46 51°9.424 2°37.43 258.7 14.2 254.8 11.4
2001-12-04 09:57:52 51°9.418 2°37.393 259.5 14.2 255.2 11.5
2001-12-04 09:57:56 51°9.414 2°37.369 260 14.2 255.8 11.6
2001-12-04 09:58:01 51°9.409 2°37.339 259.8 14.1 256.1 11.6
2001-12-04 09:58:07 51°9.404 2°37.302 260.2 14.2 256.2 11.7
2001-12-04 09:58:12 51°9.399 2°37.272 260.2 14.2 256.3 11.8
2001-12-04 09:58:17 51°9.395 2°37.241 260.3 14.2 256.5 11.9
2001-12-04 09:58:21 51°9.391 2°37.216 260.5 14.2 256.6 12.1
2001-12-04 09:58:27 51°9.386 2°37.18 260.2 14.2 256.5 12.1
2001-12-04 09:58:31 51°9.382 2°37.155 259.8 14.2 256.2 12.2
2001-12-04 09:58:37 51°9.376 2°37.119 260.2 14.2 256 12.3
2001-12-04 09:58:42 51°9.371 2°37.088 259.8 14.2 255.9 12.4
2001-12-04 09:58:47 51°9.366 2°37.058 260 14.2 255.7 12.5
2001-12-04 09:58:51 51°9.363 2°37.034 260 14.2 255.9 12.6
2001-12-04 09:58:57 51°9.357 2°36.997 259.8 14.2 255.9 12.7
2001-12-04 09:59:02 51°9.352 2°36.967 260 14.2 256 12.8
2001-12-04 09:59:06 51°9.349 2°36.942 260.2 14.2 255.9 13
2001-12-04 09:59:12 51°9.343 2°36.906 259.8 14.3 256 13.1
2001-12-04 09:59:16 51°9.339 2°36.881 260.2 14.3 255.8 13.3
2001-12-04 09:59:22 51°9.333 2°36.845 260.2 14.3 256.1 13.4
2001-12-04 09:59:26 51°9.329 2°36.82 260.2 14.3 255.7 13.4
2001-12-04 09:59:31 51°9.324 2°36.789 259.7 14.3 256 13.6
2001-12-04 09:59:37 51°9.319 2°36.753 259.7 14.3 255.6 13.7
2001-12-04 09:59:42 51°9.314 2°36.722 260 14.3 255.7 13.9
2001-12-04 09:59:47 51°9.309 2°36.691 259.7 14.3 255.6 14.1
2001-12-04 09:59:51 51°9.305 2°36.667 259.3 14.3 255.9 14.1
2001-12-04 09:59:57 51°9.299 2°36.63 259.7 14.4 255.8 14.1
2001-12-04 10:00:01 51°9.295 2°36.605 259.8 14.4 255.9 14.1
2001-12-04 10:00:07 51°9.29 2°36.568 260 14.4 256.2 14.3
2001-12-04 10:00:12 51°9.285 2°36.537 261 14.4 256.6 14.5
2001-12-04 10:00:16 51°9.282 2°36.513 261.5 14.4 257.3 14.4
2001-12-04 10:00:22 51°9.277 2°36.475 262.2 14.4 257.8 14.5
2001-12-04 10:00:27 51°9.273 2°36.444 262.2 14.4 258.1 14.6
2001-12-04 10:00:32 51°9.269 2°36.413 262.3 14.4 258.2 14.6
2001-12-04 10:00:36 51°9.265 2°36.389 262.2 14.4 258.2 14.7
2001-12-04 10:00:42 51°9.26 2°36.351 262.3 14.4 257.9 14.6
2001-12-04 10:00:46 51°9.257 2°36.327 262.3 14.3 258 14.6
2001-12-04 10:00:51 51°9.253 2°36.296 262 14.3 257.8 14.6
2001-12-04 10:00:57 51°9.248 2°36.259 261.7 14.3 257.8 14.7
2001-12-04 10:01:02 51°9.243 2°36.228 261.7 14.3 257.1 14.7
2001-12-04 10:01:07 51°9.239 2°36.197 262.2 14.3 257.7 14.6
2001-12-04 10:01:11 51°9.236 2°36.172 262 14.3 257.6 14.6
2001-12-04 10:01:17 51°9.231 2°36.136 262.2 14.3 257.7 14.8
2001-12-04 10:01:21 51°9.227 2°36.111 262 14.3 257.5 14.7
2001-12-04 10:01:26 51°9.223 2°36.08 262 14.3 257.8 14.8
2001-12-04 10:01:31 51°9.219 2°36.049 262.2 14.3 257.6 14.9
2001-12-04 10:01:37 51°9.214 2°36.012 262 14.3 258 14.9
2001-12-04 10:01:42 51°9.209 2°35.981 261.7 14.3 257.4 14.9
2001-12-04 10:01:47 51°9.205 2°35.95 261.8 14.4 257.8 14.9
2001-12-04 10:01:52 51°9.201 2°35.919 261.7 14.4 257.3 14.8
2001-12-04 10:01:57 51°9.197 2°35.888 261.7 14.4 257.6 14.8
2001-12-04 10:02:02 51°9.192 2°35.856 261.5 14.4 257.3 14.8
2001-12-04 10:02:07 51°9.188 2°35.826 261.8 14.4 257.5 14.9
2001-12-04 10:02:12 51°9.184 2°35.795 261.7 14.4 257.1 14.8
2001-12-04 10:02:17 51°9.179 2°35.763 261.8 14.4 257.5 15
2001-12-04 10:02:21 51°9.176 2°35.738 261.8 14.5 257.6 15.1
2001-12-04 10:02:27 51°9.171 2°35.701 262 14.4 257.3 15.2
2001-12-04 10:02:32 51°9.166 2°35.67 261.2 14.4 257.4 15.3
2001-12-04 10:02:37 51°9.162 2°35.64 261.7 14.4 257.4 15.4
2001-12-04 10:02:42 51°9.158 2°35.609 261.7 14.3 257.4 15.4
2001-12-04 10:02:47 51°9.154 2°35.578 262 14.3 257.8 15.5
2001-12-04 10:02:52 51°9.15 2°35.547 262.3 14.3 257.9 15.4
2001-12-04 10:02:57 51°9.146 2°35.516 262.7 14.3 258.2 15.4
2001-12-04 10:03:01 51°9.142 2°35.491 262.2 14.3 257.9 15.2
2001-12-04 10:03:07 51°9.138 2°35.454 262.7 14.3 258.2 15.3
2001-12-04 10:03:12 51°9.133 2°35.423 261.8 14.3 257.6 15.3
2001-12-04 10:03:17 51°9.129 2°35.392 261.8 14.3 257.5 15.5
2001-12-04 10:03:22 51°9.124 2°35.362 261.8 14.3 257.2 15.5
2001-12-04 10:03:27 51°9.121 2°35.331 262 14.3 258 15.5
2001-12-04 10:03:31 51°9.117 2°35.306 261.8 14.3 257.7 15.3
2001-12-04 10:03:37 51°9.112 2°35.27 261.5 14.3 257.5 15.3
2001-12-04 10:03:42 51°9.107 2°35.238 261.7 14.3 257.3 15.3
2001-12-04 10:03:47 51°9.103 2°35.208 262.2 14.3 257.5 15.5
2001-12-04 10:03:52 51°9.099 2°35.177 261.5 14.3 257.3 15.4
2001-12-04 10:03:57 51°9.095 2°35.146 261.8 14.3 257.4 15.4
2001-12-04 10:04:02 51°9.09 2°35.115 261.7 14.3 257.3 15.6
2001-12-04 10:04:06 51°9.087 2°35.091 262.2 14.3 257.6 15.5
2001-12-04 10:04:12 51°9.082 2°35.054 262 14.3 257.5 15.5
2001-12-04 10:04:17 51°9.078 2°35.023 262.2 14.3 257.5 15.1
2001-12-04 10:04:22 51°9.073 2°34.992 262.3 14.3 257.7 15.2
2001-12-04 10:04:27 51°9.069 2°34.961 261.5 14.3 257.6 15.3
2001-12-04 10:04:32 51°9.065 2°34.93 261.8 14.3 257.7 15.4
2001-12-04 10:04:37 51°9.061 2°34.9 261.8 14.3 257.8 15.1
2001-12-04 10:04:41 51°9.058 2°34.875 262 14.3 258 15.5
2001-12-04 10:04:47 51°9.052 2°34.838 262.2 14.3 257.7 15.1
2001-12-04 10:04:52 51°9.048 2°34.807 262 14.3 258 15.4
2001-12-04 10:04:57 51°9.044 2°34.776 262 14.3 257.7 15.2
2001-12-04 10:05:02 51°9.039 2°34.746 261.7 14.3 257.6 15.8
2001-12-04 10:05:07 51°9.035 2°34.715 261.3 14.3 257.5 15.3
2001-12-04 10:05:12 51°9.031 2°34.684 261.8 14.3 257.6 15.7
2001-12-04 10:05:17 51°9.027 2°34.653 262 14.3 257.5 15.7
2001-12-04 10:05:22 51°9.023 2°34.622 262.2 14.3 257.7 15.7
2001-12-04 10:05:27 51°9.018 2°34.592 261.8 14.3 257.5 15.5
2001-12-04 10:05:31 51°9.015 2°34.567 262 14.2 257.4 15.2
2001-12-04 10:05:37 51°9.01 2°34.53 261.8 14.2 257.3 15
2001-12-04 10:05:41 51°9.006 2°34.506 262 14.2 257.5 15.3
2001-12-04 10:05:47 51°9.001 2°34.469 261.7 14.2 257.1 15.2
2001-12-04 10:05:52 51°8.997 2°34.439 262.5 14.2 258 14.8
2001-12-04 10:05:56 51°8.993 2°34.414 261.7 14.2 257.8 14.9
2001-12-04 10:06:02 51°8.989 2°34.377 262.2 14.3 257.7 14.9
2001-12-04 10:06:07 51°8.984 2°34.346 262.2 14.3 257.6 15
2001-12-04 10:06:12 51°8.98 2°34.316 262.2 14.3 257.7 15.1
2001-12-04 10:06:17 51°8.976 2°34.285 262.2 14.3 257.3 15
2001-12-04 10:06:22 51°8.971 2°34.254 262 14.3 257.5 14.9
2001-12-04 10:06:27 51°8.967 2°34.223 261.8 14.3 257.4 14.4
2001-12-04 10:06:31 51°8.963 2°34.199 262 14.3 257.3 14.4
2001-12-04 10:06:37 51°8.958 2°34.162 262 14.3 257.6 14.5
2001-12-04 10:06:41 51°8.955 2°34.137 261.8 14.3 257 14.5
2001-12-04 10:06:47 51°8.95 2°34.101 262.2 14.2 257.5 14.5
2001-12-04 10:06:52 51°8.946 2°34.07 262.2 14.3 257.2 14.7
2001-12-04 10:06:56 51°8.943 2°34.045 262 14.3 257.9 14.7
2001-12-04 10:07:02 51°8.937 2°34.008 262.2 14.3 257.5 14.9
2001-12-04 10:07:07 51°8.933 2°33.978 261.7 14.2 257.4 15.1
2001-12-04 10:07:12 51°8.929 2°33.947 261.7 14.2 257.4 14.8
2001-12-04 10:07:17 51°8.924 2°33.917 261.5 14.3 256.9 14.2
2001-12-04 10:07:22 51°8.92 2°33.886 261.5 14.3 257 14.7
2001-12-04 10:07:27 51°8.915 2°33.855 261.5 14.3 257 15.1
2001-12-04 10:07:32 51°8.911 2°33.824 262 14.3 257.3 15.3
2001-12-04 10:07:36 51°8.907 2°33.8 262.2 14.2 257.3 15.1
2001-12-04 10:07:42 51°8.902 2°33.763 262.2 14.2 257.2 15.3
2001-12-04 10:07:47 51°8.898 2°33.733 262.3 14.2 257.5 15.4
2001-12-04 10:07:52 51°8.893 2°33.702 261.2 14.1 256.9 15.5
2001-12-04 10:07:57 51°8.889 2°33.672 261.7 14.1 256.9 15.9
2001-12-04 10:08:02 51°8.884 2°33.641 261.3 14.2 256.8 16.1
2001-12-04 10:08:07 51°8.88 2°33.611 262 14.2 257 16.3
2001-12-04 10:08:12 51°8.875 2°33.58 260.8 14.2 256.7 16.3
2001-12-04 10:08:17 51°8.871 2°33.55 261 14.3 256.6 16.4
2001-12-04 10:08:22 51°8.866 2°33.521 260.8 13.9 256.2 16.5
2001-12-04 10:08:27 51°8.862 2°33.494 260.8 13.2 256.2 16.7
2001-12-04 10:08:32 51°8.858 2°33.47 261.2 12.2 256 16.9
2001-12-04 10:08:37 51°8.855 2°33.447 261 11.2 255.6 17.1
2001-12-04 10:08:41 51°8.852 2°33.43 261.3 10.4 255.6 17.2
2001-12-04 10:08:47 51°8.848 2°33.407 261.7 9.6 255.3 17.2
2001-12-04 10:08:52 51°8.845 2°33.389 262 9.1 254.9 17.2
2001-12-04 10:08:57 51°8.842 2°33.371 261.5 8.3 254.6 17.1
2001-12-04 10:09:02 51°8.839 2°33.356 260.7 7.9 254 17.1
2001-12-04 10:09:07 51°8.836 2°33.342 260.8 7.2 253.5 17.3
2001-12-04 10:09:12 51°8.833 2°33.329 260.7 6.6 252.5 17.3
2001-12-04 10:09:17 51°8.831 2°33.317 261.2 6.2 252.3 17.3
2001-12-04 10:09:22 51°8.829 2°33.307 261.8 5.4 252.4 17.3
2001-12-04 10:09:27 51°8.827 2°33.299 263.5 4.4 251.4 17.3
2001-12-04 10:09:32 51°8.826 2°33.292 266.3 3.7 251.4 17.4
2001-12-04 10:09:37 51°8.825 2°33.287 268.2 3.2 251 17.4
2001-12-04 10:09:42 51°8.824 2°33.284 269.2 2.2 247.4 17.4
2001-12-04 10:09:47 51°8.823 2°33.282 270.8 1.4 236.6 17.5
2001-12-04 10:09:52 51°8.822 2°33.282 273 1.2 230.4 17.5
2001-12-04 10:09:57 51°8.82 2°33.282 274.8 0.8 183.9 17.5
2001-12-04 10:10:02 51°8.82 2°33.282 277.2 0.8 168.1 -999
2001-12-04 10:10:08 51°8.818 2°33.283 279.5 0.8 158.3 -999
2001-12-04 10:10:12 51°8.818 2°33.284 281.8 0.8 158.2 -999
2001-12-04 10:10:18 51°8.816 2°33.284 283.5 0.8 163.6 -999
2001-12-04 10:10:23 51°8.815 2°33.285 285.5 0.9 161.7 -999
2001-12-04 10:10:28 51°8.814 2°33.286 287.3 0.9 159.5 -999
2001-12-04 10:10:33 51°8.812 2°33.287 288.7 1 154.3 -999
2001-12-04 10:10:38 51°8.811 2°33.289 290.5 1.1 146.1 -999
2001-12-04 10:10:42 51°8.81 2°33.29 292 1.2 144.2 17.4
2001-12-04 10:10:47 51°8.808 2°33.292 293.8 1.3 145.1 17.5
2001-12-04 10:10:52 51°8.807 2°33.294 295.7 1.3 144.7 17.4
2001-12-04 10:10:57 51°8.805 2°33.295 297.8 1.2 146.2 -999
2001-12-04 10:11:02 51°8.804 2°33.296 300.3 1 153.7 -999
2001-12-04 10:11:08 51°8.803 2°33.295 301.7 0.8 173.5 -999
2001-12-04 10:11:12 51°8.803 2°33.293 302 0.6 213.1 17.2
2001-12-04 10:11:17 51°8.804 2°33.29 301.3 1.1 266.9 -999
2001-12-04 10:11:22 51°8.804 2°33.287 300.3 1.4 274.5 -999
2001-12-04 10:11:28 51°8.804 2°33.283 300.2 1.5 277.8 -999
2001-12-04 10:11:33 51°8.804 2°33.281 300.3 1.4 278.2 -999
2001-12-04 10:11:37 51°8.804 2°33.279 301.3 1.3 278 17.4
2001-12-04 10:11:41 51°8.805 2°33.277 301.8 1.2 278.8 17.4
2001-12-04 10:11:47 51°8.805 2°33.274 303.2 1.1 278.9 17.4
2001-12-04 10:11:52 51°8.805 2°33.272 304.5 1 274.2 17.5
2001-12-04 10:11:57 51°8.805 2°33.269 306 1 273.7 17.5
2001-12-04 10:12:02 51°8.805 2°33.267 307.8 0.9 277.6 -999
2001-12-04 10:12:07 51°8.805 2°33.265 309.7 0.9 275.7 17.6
2001-12-04 10:12:11 51°8.805 2°33.264 311.5 0.9 275.1 17.5
2001-12-04 10:12:17 51°8.805 2°33.262 313 0.8 273.4 17.5
2001-12-04 10:12:21 51°8.805 2°33.261 314.7 0.7 270 17.5
2001-12-04 10:12:27 51°8.805 2°33.259 316.7 0.6 271.2 17.4
2001-12-04 10:12:32 51°8.805 2°33.258 318.7 0.6 271.4 17.4
2001-12-04 10:12:37 51°8.805 2°33.257 321 0.6 275.5 17.3
2001-12-04 10:12:42 51°8.805 2°33.256 322.7 0.5 274.6 17.5
2001-12-04 10:12:47 51°8.805 2°33.255 324.5 0.4 274.1 17.5
2001-12-04 10:12:52 51°8.805 2°33.255 326.8 0.4 272.6 17.5
2001-12-04 10:12:57 51°8.805 2°33.254 329 0.4 266.8 17.6
2001-12-04 10:13:01 51°8.805 2°33.253 331.3 0.4 260.8 17.6
2001-12-04 10:13:07 51°8.805 2°33.253 333 0.3 268.9 17.6
2001-12-04 10:13:12 51°8.805 2°33.252 334.5 0.3 255 17.5
2001-12-04 10:13:17 51°8.805 2°33.252 336.5 0.3 245.2 17.4
2001-12-04 10:13:21 51°8.804 2°33.251 338.5 0.3 243.3 17.4
2001-12-04 10:13:27 51°8.804 2°33.251 340.2 0.2 230.4 17.5
2001-12-04 10:13:32 51°8.804 2°33.251 341.7 0.2 226.3 17.6
2001-12-04 10:13:37 51°8.804 2°33.251 344 0.2 194.2 17.5
2001-12-04 10:13:41 51°8.804 2°33.251 346.7 0.2 186.8 17.5
2001-12-04 10:13:47 51°8.803 2°33.251 348.3 0.3 164.3 17.5
2001-12-04 10:13:52 51°8.803 2°33.251 350 0.3 176.6 17.4
2001-12-04 10:13:57 51°8.802 2°33.251 351.3 0.4 187.4 17.4
2001-12-04 10:14:02 51°8.802 2°33.251 352.5 0.4 188.5 17.5
2001-12-04 10:14:07 51°8.801 2°33.25 353.8 0.4 192.8 17.6
2001-12-04 10:14:12 51°8.8 2°33.25 355.3 0.4 187.3 17.5
2001-12-04 10:14:17 51°8.8 2°33.25 356.3 0.4 189.9 17.6
2001-12-04 10:14:22 51°8.799 2°33.251 357.3 0.4 182.1 17.6
2001-12-04 10:14:27 51°8.799 2°33.251 358.8 0.4 178.5 17.5
2001-12-04 10:14:32 51°8.798 2°33.25 0.2 0.4 176 17.4
2001-12-04 10:14:37 51°8.798 2°33.251 1.5 0.4 177.8 17.6
2001-12-04 10:14:41 51°8.797 2°33.251 2.5 0.5 176.6 17.6
2001-12-04 10:14:47 51°8.796 2°33.251 3.5 0.5 178.7 17.6
2001-12-04 10:14:52 51°8.796 2°33.25 4.7 0.5 183.2 17.6
2001-12-04 10:14:57 51°8.795 2°33.251 4.8 0.5 181.3 17.5
2001-12-04 10:15:02 51°8.794 2°33.25 5.3 0.5 184 17.5
2001-12-04 10:15:07 51°8.794 2°33.251 5.7 0.4 186.2 17.5
2001-12-04 10:15:12 51°8.793 2°33.25 5.7 0.5 187.1 17.6
2001-12-04 10:15:16 51°8.793 2°33.25 6.2 0.4 185.5 17.7
2001-12-04 10:15:22 51°8.792 2°33.25 6.5 0.4 177.2 17.6
2001-12-04 10:15:27 51°8.791 2°33.251 7.2 0.4 173.6 17.6
2001-12-04 10:15:32 51°8.791 2°33.25 7.8 0.4 176.2 17.6
2001-12-04 10:15:37 51°8.79 2°33.25 8 0.4 181.3 17.6
2001-12-04 10:15:41 51°8.79 2°33.251 8 0.4 179.8 17.5
2001-12-04 10:15:47 51°8.789 2°33.251 8 0.5 183 17.5
2001-12-04 10:15:52 51°8.789 2°33.251 8.5 0.4 175.9 17.5
2001-12-04 10:15:57 51°8.788 2°33.251 8.5 0.4 182.9 17.5
2001-12-04 10:16:02 51°8.787 2°33.251 8.3 0.4 175 17.5
2001-12-04 10:16:07 51°8.787 2°33.251 8.2 0.4 176.9 17.6
2001-12-04 10:16:12 51°8.786 2°33.251 8 0.4 176.5 17.7
2001-12-04 10:16:16 51°8.786 2°33.251 8 0.4 173.8 17.5
2001-12-04 10:16:22 51°8.785 2°33.251 7.5 0.4 175.9 17.7
2001-12-04 10:16:27 51°8.785 2°33.251 7.7 0.4 183.6 17.7
2001-12-04 10:16:32 51°8.784 2°33.251 7.8 0.4 173.2 17.6
2001-12-04 10:16:37 51°8.784 2°33.251 7.8 0.4 180.7 17.6
2001-12-04 10:16:42 51°8.783 2°33.251 7.7 0.4 178.6 17.6
2001-12-04 10:16:47 51°8.782 2°33.251 7.5 0.4 176.1 17.6
2001-12-04 10:16:52 51°8.782 2°33.251 7.5 0.4 183.2 17.6
2001-12-04 10:16:57 51°8.781 2°33.251 7.5 0.4 194.3 17.5
2001-12-04 10:17:01 51°8.781 2°33.251 6.7 0.4 196.8 17.6
2001-12-04 10:17:07 51°8.78 2°33.251 6.2 0.3 197.8 17.6
2001-12-04 10:17:12 51°8.78 2°33.25 5.7 0.4 203.5 17.6
2001-12-04 10:17:17 51°8.779 2°33.25 5.3 0.3 200 17.6
2001-12-04 10:17:21 51°8.779 2°33.25 4.8 0.3 195 17.6
2001-12-04 10:17:27 51°8.778 2°33.25 5.3 0.3 199.6 17.6
2001-12-04 10:17:32 51°8.778 2°33.25 5.2 0.3 198.2 17.6
2001-12-04 10:17:36 51°8.777 2°33.249 4.5 0.4 214.2 17.6
2001-12-04 10:17:42 51°8.777 2°33.249 3.8 0.4 209.8 17.6
2001-12-04 10:17:47 51°8.776 2°33.249 3.2 0.3 210.6 17.7
2001-12-04 10:17:52 51°8.776 2°33.249 2.7 0.4 208.5 17.7
2001-12-04 10:17:57 51°8.775 2°33.249 2.3 0.3 190.7 17.5
2001-12-04 10:18:02 51°8.775 2°33.249 1.3 0.3 198.6 17.6
2001-12-04 10:18:07 51°8.775 2°33.249 1.5 0.3 191 17.6
2001-12-04 10:18:12 51°8.774 2°33.249 1.2 0.3 203.7 17.6
2001-12-04 10:18:16 51°8.774 2°33.248 0.5 0.3 199.2 17.6
2001-12-04 10:18:22 51°8.774 2°33.248 359.7 0.3 191.5 17.4
2001-12-04 10:18:27 51°8.773 2°33.248 359.3 0.3 198.9 17.5
2001-12-04 10:18:32 51°8.773 2°33.248 359.5 0.3 203.3 17.6
2001-12-04 10:18:37 51°8.772 2°33.247 359.7 0.3 202.6 17.6
2001-12-04 10:18:42 51°8.772 2°33.247 359.2 0.4 206.5 17.7
2001-12-04 10:18:46 51°8.771 2°33.247 359 0.4 207.7 17.7
2001-12-04 10:18:52 51°8.771 2°33.247 358.5 0.3 203.5 17.7
2001-12-04 10:18:57 51°8.77 2°33.247 358.8 0.3 198.8 17.6
2001-12-04 10:19:02 51°8.77 2°33.246 358.3 0.4 197.7 17.5
2001-12-04 10:19:07 51°8.769 2°33.246 357.7 0.4 197.1 17.6
2001-12-04 10:19:12 51°8.769 2°33.246 356.8 0.4 206.8 17.7
2001-12-04 10:19:17 51°8.768 2°33.246 356.5 0.4 200.4 17.7
2001-12-04 10:19:21 51°8.768 2°33.245 356 0.4 206.6 17.8
2001-12-04 10:19:27 51°8.767 2°33.245 355.7 0.3 206.2 17.8
2001-12-04 10:19:32 51°8.766 2°33.245 355.3 0.3 212.8 17.8
2001-12-04 10:19:37 51°8.766 2°33.244 354.8 0.4 212.1 17.6
2001-12-04 10:19:42 51°8.766 2°33.244 355.3 0.3 195.7 17.7
2001-12-04 10:19:45 51°8.765 2°33.244 354.8 0.3 198.2 17.7
2001-12-04 10:19:52 51°8.765 2°33.244 355 0.3 195.3 17.7
2001-12-04 10:19:57 51°8.764 2°33.243 354.7 0.3 205.5 17.7
2001-12-04 10:20:01 51°8.764 2°33.243 354.2 0.3 204.7 17.7
2001-12-04 10:20:07 51°8.763 2°33.243 354.2 0.3 182.4 17.7
2001-12-04 10:20:12 51°8.763 2°33.243 354 0.3 196.8 17.7
2001-12-04 10:20:17 51°8.763 2°33.243 353.8 0.3 192.4 17.7
2001-12-04 10:20:21 51°8.762 2°33.243 353.5 0.4 209.5 17.7
2001-12-04 10:20:27 51°8.762 2°33.243 353 0.4 198.6 17.7
2001-12-04 10:20:31 51°8.762 2°33.243 352.8 0.4 192.7 17.7
2001-12-04 10:20:37 51°8.761 2°33.242 352.3 0.4 200.2 17.6
2001-12-04 10:20:42 51°8.76 2°33.242 351.7 0.3 189.1 17.5
2001-12-04 10:20:46 51°8.76 2°33.243 351.8 0.4 186.5 17.5
2001-12-04 10:20:52 51°8.76 2°33.243 352.2 0.4 181.1 17.5
2001-12-04 10:20:57 51°8.759 2°33.243 353.2 0.5 181.7 17.5
2001-12-04 10:21:02 51°8.758 2°33.243 353.5 0.5 179 17.7
2001-12-04 10:21:07 51°8.758 2°33.243 353.7 0.5 191.7 17.8
2001-12-04 10:21:12 51°8.757 2°33.242 353.8 0.4 193.3 17.9
2001-12-04 10:21:17 51°8.757 2°33.243 353.8 0.4 196.1 18
2001-12-04 10:21:22 51°8.756 2°33.242 353.8 0.4 192.3 18
2001-12-04 10:21:27 51°8.756 2°33.243 354.2 0.4 176.4 17.9
2001-12-04 10:21:32 51°8.755 2°33.242 354 0.4 190.5 17.9
2001-12-04 10:21:37 51°8.754 2°33.242 353.8 0.4 184 17.9
2001-12-04 10:21:41 51°8.754 2°33.242 353.5 0.4 182.4 17.9
2001-12-04 10:21:47 51°8.753 2°33.242 354 0.4 181.2 17.8
2001-12-04 10:21:52 51°8.752 2°33.243 354.2 0.4 186 17.7
2001-12-04 10:21:56 51°8.752 2°33.243 354 0.4 179.2 17.7
2001-12-04 10:22:01 51°8.752 2°33.243 353.7 0.4 168.4 17.7
2001-12-04 10:22:07 51°8.751 2°33.243 353.5 0.4 178 17.8
2001-12-04 10:22:12 51°8.75 2°33.243 353.7 0.4 182.1 17.8
2001-12-04 10:22:17 51°8.75 2°33.243 354 0.4 179.4 17.8
2001-12-04 10:22:22 51°8.749 2°33.243 354 0.4 186.6 17.7
2001-12-04 10:22:27 51°8.748 2°33.243 353.8 0.4 181.7 17.8
2001-12-04 10:22:32 51°8.748 2°33.243 353.2 0.4 174.1 17.6
2001-12-04 10:22:37 51°8.747 2°33.243 353.2 0.4 179.7 17.6
2001-12-04 10:22:42 51°8.747 2°33.244 353.7 0.5 174.4 17.6
2001-12-04 10:22:47 51°8.746 2°33.243 354.5 0.5 180.8 17.6
2001-12-04 10:22:52 51°8.746 2°33.245 354.5 0.5 157.1 17.6
2001-12-04 10:22:57 51°8.745 2°33.245 354.5 0.5 167.3 17.6
2001-12-04 10:23:02 51°8.744 2°33.245 355 0.5 159.2 17.5
2001-12-04 10:23:07 51°8.744 2°33.245 355.2 0.5 164.1 17.6
2001-12-04 10:23:12 51°8.743 2°33.246 356.3 0.6 159.5 17.6
2001-12-04 10:23:17 51°8.742 2°33.246 356.7 0.6 167.5 17.6
2001-12-04 10:23:22 51°8.741 2°33.246 357.2 0.6 164.7 17.7
2001-12-04 10:23:27 51°8.74 2°33.247 358.5 0.6 163.6 17.6
2001-12-04 10:23:32 51°8.74 2°33.247 358.8 0.6 163.1 17.5
2001-12-04 10:23:37 51°8.739 2°33.248 359.3 0.5 165.8 17.5
2001-12-04 10:23:42 51°8.738 2°33.248 359.7 0.5 166.9 17.5
2001-12-04 10:23:47 51°8.738 2°33.248 0.3 0.5 163.7 17.5
2001-12-04 10:23:52 51°8.737 2°33.248 0.3 0.5 171.2 17.5
2001-12-04 10:23:57 51°8.736 2°33.249 0.7 0.5 166.7 17.5
2001-12-04 10:24:01 51°8.736 2°33.249 0.7 0.5 163.8 17.4
2001-12-04 10:24:07 51°8.735 2°33.249 0.5 0.5 162 17.4
2001-12-04 10:24:12 51°8.734 2°33.25 1 0.5 161.7 17.4
2001-12-04 10:24:17 51°8.733 2°33.25 0.8 0.5 169.3 17.4
2001-12-04 10:24:21 51°8.733 2°33.25 1.2 0.6 162.8 17.3
2001-12-04 10:24:27 51°8.732 2°33.25 1.7 0.6 166.7 17.1
2001-12-04 10:24:32 51°8.731 2°33.251 1.5 0.5 167.7 17.1
2001-12-04 10:24:37 51°8.731 2°33.251 1.5 0.5 174 17.2
2001-12-04 10:24:42 51°8.73 2°33.251 1.5 0.4 171.6 17.2
2001-12-04 10:24:47 51°8.73 2°33.251 1.2 0.2 170.2 17.2
2001-12-04 10:24:52 51°8.73 2°33.251 0.8 0.1 130.4 17.3
2001-12-04 10:24:57 51°8.731 2°33.252   0.1 31.6 17.3
2001-12-04 10:25:02 51°8.732 2°33.251 358.5 0.4 356.9 17.2
2001-12-04 10:25:07 51°8.733 2°33.25 356.8 1 348.8 17.4
2001-12-04 10:25:11 51°8.735 2°33.25 354.2 1.3 350.4 17.3
2001-12-04 10:25:17 51°8.738 2°33.249 351 1.7 345.9 17.4
2001-12-04 10:25:21 51°8.74 2°33.247 348.3 2 341.7 17.5
2001-12-04 10:25:27 51°8.744 2°33.244 345.2 2.4 336.1 17.6
2001-12-04 10:25:32 51°8.748 2°33.24 342 2.6 333.9 17.8
2001-12-04 10:25:36 51°8.751 2°33.237 337.8 3 329.6 17.9
2001-12-04 10:25:42 51°8.755 2°33.233 334.3 3.2 327.4 17.9
2001-12-04 10:25:47 51°8.759 2°33.228 331.3 3.4 324.3 17.8
2001-12-04 10:25:52 51°8.763 2°33.222 329.5 3.6 321.6 17.7
2001-12-04 10:25:57 51°8.767 2°33.217 327.3 3.8 319 17.8
2001-12-04 10:26:02 51°8.771 2°33.21 325.3 3.9 317.5 17.8
2001-12-04 10:26:06 51°8.774 2°33.206 323.8 4.1 316.9 17.7
2001-12-04 10:26:12 51°8.779 2°33.197 323.5 4.3 314.5 17.8
2001-12-04 10:26:17 51°8.783 2°33.19 323 4.4 314.8 17.8
2001-12-04 10:26:22 51°8.788 2°33.183 322 4.4 314.2 17.8
2001-12-04 10:26:27 51°8.792 2°33.176 322 4.4 314.9 17.7
2001-12-04 10:26:32 51°8.796 2°33.17 321.2 4.2 313.3 17.7
2001-12-04 10:26:37 51°8.799 2°33.164 320.7 4 312.9 17.8
2001-12-04 10:26:41 51°8.802 2°33.158 320.5 4 312.2 17.7
2001-12-04 10:26:47 51°8.806 2°33.151 320.2 3.9 312.1 17.8
2001-12-04 10:26:52 51°8.81 2°33.144 320 3.8 311.2 17.9
2001-12-04 10:26:57 51°8.813 2°33.138 319.7 3.8 310.6 17.9
2001-12-04 10:27:02 51°8.817 2°33.132 319 3.8 310.3 18
2001-12-04 10:27:07 51°8.82 2°33.125 318.7 3.7 309.4 18
2001-12-04 10:27:12 51°8.823 2°33.119 318.7 3.7 309.5 18
2001-12-04 10:27:17 51°8.826 2°33.113 318.3 3.7 309.1 18.1
2001-12-04 10:27:22 51°8.83 2°33.106 318.3 3.7 309.1 18.1
2001-12-04 10:27:27 51°8.833 2°33.1 318.3 3.7 309.1 17.9
2001-12-04 10:27:32 51°8.836 2°33.093 318 3.7 308.4 18.1
2001-12-04 10:27:37 51°8.839 2°33.087 317.7 3.7 308.3 18.1
2001-12-04 10:27:42 51°8.843 2°33.08 317.8 3.7 308.1 18.1
2001-12-04 10:27:47 51°8.846 2°33.074 317.7 3.7 307.9 18
2001-12-04 10:27:51 51°8.848 2°33.069 317.3 3.7 307.2 18.1
2001-12-04 10:27:57 51°8.852 2°33.061 317.3 3.7 307.4 18
2001-12-04 10:28:02 51°8.855 2°33.054 316.8 3.7 307.2 18
2001-12-04 10:28:07 51°8.858 2°33.048 316.7 3.8 307.5 18.1
2001-12-04 10:28:12 51°8.861 2°33.041 316.3 3.7 307 18.1
2001-12-04 10:28:17 51°8.865 2°33.034 316.7 3.7 306.7 17.9
2001-12-04 10:28:22 51°8.867 2°33.028 316.5 3.6 306.2 17.9
2001-12-04 10:28:27 51°8.87 2°33.022 316.2 3.6 305.7 17.9
2001-12-04 10:28:32 51°8.873 2°33.015 315.7 3.5 305.4 18
2001-12-04 10:28:37 51°8.875 2°33.01 315.8 3.3 305.2 18
2001-12-04 10:28:42 51°8.878 2°33.005 315.3 3.1 304.4 18
2001-12-04 10:28:47 51°8.88 2°33 315.8 2.9 304.9 18.1
2001-12-04 10:28:51 51°8.882 2°32.996 316.5 2.8 305.6 18.1
2001-12-04 10:28:57 51°8.884 2°32.991 317 2.6 306.8 18.2
2001-12-04 10:29:01 51°8.886 2°32.987 317.5 2.5 307.7 18.2
2001-12-04 10:29:07 51°8.888 2°32.983 318.3 2.1 308.5 18.1
2001-12-04 10:29:11 51°8.889 2°32.981 319.3 1.7 307.1 18.2
2001-12-04 10:29:17 51°8.889 2°32.979 320.2 1.1 302.9 18.2
2001-12-04 10:29:22 51°8.889 2°32.979 321 0.7 296.8 18.1
2001-12-04 10:29:27 51°8.889 2°32.979 322.5 0.2 254.1 18.2
2001-12-04 10:29:32 51°8.888 2°32.979 324.3 0.4 182.6 18.1
2001-12-04 10:29:36 51°8.888 2°32.979 326.8 0.6 162.9 17.9
2001-12-04 10:29:42 51°8.887 2°32.98 329.2 0.7 156.5 18.1
2001-12-04 10:29:47 51°8.886 2°32.981 332 0.6 154.1 18.1
2001-12-04 10:29:52 51°8.885 2°32.981 334.5 0.6 152 18.1
2001-12-04 10:29:57 51°8.884 2°32.982 337.7 0.6 155.3 -999
2001-12-04 10:30:03 51°8.884 2°32.982 341.3 0.6 146.8 -999
2001-12-04 10:30:08 51°8.883 2°32.983 344 0.6 150.5 -999
2001-12-04 10:30:13 51°8.882 2°32.984 346.3 0.6 148.6 -999
2001-12-04 10:30:18 51°8.881 2°32.984 348.7 0.6 152.4 -999
2001-12-04 10:30:22 51°8.881 2°32.985 351.2 0.6 154.1 18.1
2001-12-04 10:30:28 51°8.88 2°32.985 353.2 0.6 161.7 -999
2001-12-04 10:30:32 51°8.879 2°32.985 355 0.5 162.9 18.1
2001-12-04 10:30:37 51°8.879 2°32.985 356.2 0.5 164.5 17.9
2001-12-04 10:30:42 51°8.878 2°32.986 357.7 0.5 163.5 17.8
2001-12-04 10:30:47 51°8.878 2°32.986 359.2 0.5 164.3 18
2001-12-04 10:30:52 51°8.877 2°32.986 0.7 0.5 173.8 18
2001-12-04 10:30:56 51°8.876 2°32.987 2.2 0.5 161.3 18
2001-12-04 10:31:02 51°8.876 2°32.987 2.5 0.5 156.5 18
2001-12-04 10:31:07 51°8.875 2°32.988 3.5 0.5 158 18
2001-12-04 10:31:12 51°8.875 2°32.988 4.8 0.4 171.1 17.9
2001-12-04 10:31:17 51°8.874 2°32.988 5.3 0.4 167 18
2001-12-04 10:31:21 51°8.874 2°32.988 5.8 0.4 156.4 17.9
2001-12-04 10:31:26 51°8.873 2°32.989 6.3 0.4 156.8 18
2001-12-04 10:31:32 51°8.872 2°32.99 6.7 0.4 159.1 18
2001-12-04 10:31:37 51°8.872 2°32.989 7.2 0.4 162.5 18.1
2001-12-04 10:31:41 51°8.871 2°32.99 8 0.4 157.6 18.2
2001-12-04 10:31:47 51°8.871 2°32.991 7.8 0.4 156.6 18.2
2001-12-04 10:31:52 51°8.871 2°32.991 8 0.4 157.7 18.2
2001-12-04 10:31:57 51°8.87 2°32.991 8.2 0.4 150.3 18.2
2001-12-04 10:32:02 51°8.869 2°32.991 7.8 0.3 155.4 18.2
2001-12-04 10:32:07 51°8.869 2°32.992 8.2 0.4 148.2 18.2
2001-12-04 10:32:12 51°8.868 2°32.992 8.2 0.4 158.3 18.1
2001-12-04 10:32:17 51°8.868 2°32.993 8.5 0.4 155.5 18.1
2001-12-04 10:32:21 51°8.868 2°32.993 8 0.3 157.8 18.1
2001-12-04 10:32:27 51°8.867 2°32.993 7.3 0.4 137.1 18
2001-12-04 10:32:32 51°8.867 2°32.994 7.2 0.3 128 18
2001-12-04 10:32:37 51°8.867 2°32.994 6.3 0.3 137.7 17.9
2001-12-04 10:32:42 51°8.866 2°32.995 6.8 0.3 136.4 17.9
2001-12-04 10:32:47 51°8.866 2°32.995 6.5 0.3 144.4 18.1
2001-12-04 10:32:52 51°8.866 2°32.996 6.7 0.3 143.7 18.2
2001-12-04 10:32:57 51°8.865 2°32.996 6.3 0.3 149.3 18.2
2001-12-04 10:33:02 51°8.865 2°32.996 6 0.2 153.5 18.3
2001-12-04 10:33:07 51°8.865 2°32.996 5.5 0.2 154.5 18.3
2001-12-04 10:33:12 51°8.865 2°32.996 4.8 0.2 162.5 18.3
2001-12-04 10:33:17 51°8.864 2°32.996 4.2 0.2 170.9 18.3
2001-12-04 10:33:21 51°8.864 2°32.997 3.7 0.2 163.9 18.2
2001-12-04 10:33:27 51°8.864 2°32.996 2.8 0.2 172.7 18.1
2001-12-04 10:33:32 51°8.863 2°32.997 2.5 0.2 144.6 18.1
2001-12-04 10:33:37 51°8.863 2°32.997 2.5 0.2 168.4 18.1
2001-12-04 10:33:42 51°8.863 2°32.997 2.2 0.2 144.6 18
2001-12-04 10:33:47 51°8.863 2°32.997 1.8 0.2 170 18.1
2001-12-04 10:33:52 51°8.862 2°32.997 2.2 0.2 149.5 18
2001-12-04 10:33:56 51°8.862 2°32.998 1.8 0.2 153 18.1
2001-12-04 10:34:02 51°8.862 2°32.998 1 0.2 155.9 18.1
2001-12-04 10:34:07 51°8.862 2°32.998 0.7 0.2 156.7 18.1
2001-12-04 10:34:12 51°8.862 2°32.999 1 0.2 135.3 18.2
2001-12-04 10:34:17 51°8.861 2°32.998 1.2 0.2 153 18.2
2001-12-04 10:34:22 51°8.861 2°32.999 0.5 0.2 128.7 18.2
2001-12-04 10:34:26 51°8.861 2°32.999 0.3 0.2 130.3 18.2
2001-12-04 10:34:32 51°8.86 2°33 0.7 0.2 121.3 18.1
2001-12-04 10:34:37 51°8.86 2°33 359.8 0.2 124.7 18.1
2001-12-04 10:34:42 51°8.86 2°33   0.2 132.9 18.2
2001-12-04 10:34:47 51°8.86 2°33.001 0.3 0.2 124.6 18.3
2001-12-04 10:34:52 51°8.859 2°33.001 0.3 0.2 144.5 18.2
2001-12-04 10:34:57 51°8.859 2°33.001 0.5 0.2 139.2 18
2001-12-04 10:35:02 51°8.859 2°33.002   0.2 134.2 18.1
2001-12-04 10:35:07 51°8.859 2°33.002 0.3 0.2 129.6 18.2
2001-12-04 10:35:12 51°8.859 2°33.003   0.2 129.7 18.2
2001-12-04 10:35:17 51°8.859 2°33.002 0.2 0.1 142.1 18.3
2001-12-04 10:35:22 51°8.858 2°33.003 359.5 0.2 132.8 18.3
2001-12-04 10:35:26 51°8.858 2°33.003 359.3 0.2 131 18.3
2001-12-04 10:35:31 51°8.858 2°33.004 359 0.2 138.5 18
2001-12-04 10:35:36 51°8.858 2°33.004 358.8 0.2 136.1 18.2
2001-12-04 10:35:42 51°8.858 2°33.004 358.5 0.2 138 18.2
2001-12-04 10:35:47 51°8.858 2°33.004 358.2 0.1 142.7 18.2
2001-12-04 10:35:52 51°8.857 2°33.005 357.5 0.1 141.4 18.3
2001-12-04 10:35:57 51°8.857 2°33.005 357.5 0.1 152.5 18.2
2001-12-04 10:36:02 51°8.857 2°33.005 357.5 0.2 125.9 18.2
2001-12-04 10:36:07 51°8.857 2°33.006 357.2 0.2 124.6 17.9
2001-12-04 10:36:12 51°8.857 2°33.006 357.8 0.2 130 18.2
2001-12-04 10:36:17 51°8.857 2°33.006 358.3 0.2 128.8 18.2
2001-12-04 10:36:22 51°8.857 2°33.007 358.5 0.2 127.5 18.2
2001-12-04 10:36:27 51°8.856 2°33.007 359 0.2 130.7 18.1
2001-12-04 10:36:32 51°8.856 2°33.007 359.5 0.3 129.7 18.1
2001-12-04 10:36:37 51°8.856 2°33.008 359.3 0.2 143.7 18.1
2001-12-04 10:36:41 51°8.856 2°33.008 357.8 0.3 133 18.1
2001-12-04 10:36:47 51°8.855 2°33.008 357.3 0.2 165.7 18.1
2001-12-04 10:36:52 51°8.855 2°33.008 357.2 0.2 162.3 18.2
2001-12-04 10:36:57 51°8.855 2°33.009 356.7 0.2 151.8 18.2
2001-12-04 10:37:01 51°8.855 2°33.009 356.5 0.2 153.4 18.2
2001-12-04 10:37:07 51°8.854 2°33.009 356.2 0.2 158.3 18.3
2001-12-04 10:37:12 51°8.854 2°33.009 356.2 0.2 161.9 18.3
2001-12-04 10:37:16 51°8.854 2°33.009 356 0.2 170.8 18.4
2001-12-04 10:37:22 51°8.854 2°33.009 355.8 0.2 142.9 18.3
2001-12-04 10:37:27 51°8.853 2°33.01 355.2 0.2 134.7 18.2
2001-12-04 10:37:32 51°8.853 2°33.01 355 0.1 126.9 18.1
2001-12-04 10:37:37 51°8.853 2°33.01 354.8 0.2 130.4 18.1
2001-12-04 10:37:42 51°8.853 2°33.011 354.8 0.2 122.3 18.1
2001-12-04 10:37:47 51°8.853 2°33.012 355.2 0.2 128 18.1
2001-12-04 10:37:52 51°8.853 2°33.012 356.5 0.3 121.4 18.1
2001-12-04 10:37:57 51°8.852 2°33.013 356.7 0.3 126.7 18.1
2001-12-04 10:38:02 51°8.852 2°33.013 357.2 0.3 136.9 18.2
2001-12-04 10:38:07 51°8.852 2°33.014 358.3 0.2 132.5 18.1
2001-12-04 10:38:12 51°8.851 2°33.014 358.8 0.3 132.7 18.1
2001-12-04 10:38:17 51°8.851 2°33.015 358.5 0.3 144.2 18.1